OPS 4682 DEB, 18427

Orbit data source: Space-Track

OPS 4682 DEB, 18427 is space debris in LEO originally from a launch on Sat, 03 Apr 1965 UTC launched from the Air Force Western Test Range (AFWTR). Debris objects in space refer to the collection of defunct objects orbiting the Earth. Examples of debris include non-operational satellites, rocket bodies, and fragments generated from explosions, collisions, or faulty payload assembly.

Loading next visibility...
Identifier
18427, 1965-027AB
Orbit
LEO
Country
Flag of USUS
Related business
Manufacturer
Unknown
Mission
Spacecraft
Bus & Motor
Unknown
Mass
Unknown
Launch date (UTC)
1965-04-03 (61 years ago)
Launch vehicle
Unknown
Launch site
Air Force Western Test Range (AFWTR)
Object type
Payload
Rocket body
Debris
Shape & HBR
Unknown shape, 0.1 m
Radar Cross Section
Small (<0.1 m²)

Expand to show TLE details & history
Last TLE update: 9 hours ago

TLE from 9 hours ago
0 OPS 4682 DEB
1 18427U 65027AB  26036.18889442  .00001408  00000-0  43446-2 0  9999
2 18427  90.2887   1.1411 0017388 215.9257 158.0241 13.04791191941128
Epoch: 2026-02-05T04:32Z
TLE epoch observation values (Epoch: 2026-02-05T04:32:00.477Z)
Latitude
13.99264°
Longitude
157.72283°
Altitude
1,257.833 km
Speed
7.222 km/s
True Right ascension
00h 04m 16s
True Declination
13° 55' 03"
Sunlit
Object was in daylight at epoch
Visualization orbit readout
Latitude
Unknown
Longitude
Unknown
Altitude
Unknown
Speed
Unknown
Apparent Right ascension
Unknown
Apparent Declination
Unknown
Sunlit
N/A
Visualization observer readout
Local Sidereal Time
15:20:41
Azimuth
Unknown
Elevation
Unknown
Doppler factor
Unknown
Orbital elements
Apogee altitude
1,253.739 km
Perigee altitude
1,227.245 km
Semi-major axis
7,618.629 km
Eccentricity
0.00174
Inclination
90.2887°
RAAN
1.1411°
Arg. of periapsis
215.9257°
True anomaly
158.09851°
Mean anomaly
158.0241°
Eccentric anomaly
158.06132°
Mean motion
3.26383 °/min
Orbital period
110.3 mins
BSTAR
0.0043446
Loading maneuver chart data...
Computing Atmospheric mass density...
Loading historical data...
Loading historical data...
Loading historical data...
Loading historical data...
Loading historical data...
Loading historical data...
Loading historical data...

Documentation

Showing up to 5 results
|